Temperature
11 11 10 10 10 9 9 9 9 9 9 9 9 9 10 10 10 10 11 11 11 11 11 11 12 12 13 14 14 15 16 16 17 17 17 17 16 16 16 15 15 16 16
11 10 10 10 9 9 9 9 9 9 8 8 8 9 9 9 9 10 10 11 11 11 11 11 11 11 12 13 13 14 15 16 16 16 16 16 16 16 15 15 15 15 16
11 10 10 9 9 9 9 8 8 8 8 8 8 8 8 8 9 9 10 10 10 11 11 11 11 11 11 12 12 13 14 15 15 15 15 15 15 15 15 14 14 14 15
10 10 9 9 9 8 8 8 8 8 8 8 8 8 8 8 8 9 9 10 10 10 10 10 10 11 11 11 11 12 13 14 14 15 15 15 15 14 14 14 13 13 13
10 9 9 9 8 8 8 8 8 8 8 8 7 7 7 7 8 8 9 9 9 10 10 10 10 10 10 11 11 11 12 13 13 14 14 14 14 14 14 13 13 12 12
10 9 9 8 8 8 8 8 8 7 7 7 7 7 7 7 8 8 8 8 9 9 10 10 10 10 10 10 10 10 11 12 12 13 14 14 14 14 14 13 13 12 12
9 9 9 8 8 8 8 8 7 7 7 7 7 7 7 7 7 7 8 8 8 9 9 9 9 10 10 10 10 10 10 11 12 12 13 13 14 14 14 13 13 12 12
9 9 8 8 8 8 7 7 7 7 7 7 7 7 7 7 7 7 7 7 8 8 9 9 9 10 10 10 10 10 10 11 11 12 12 13 13 14 14 14 13 12 12
9 8 8 8 7 7 7 7 7 7 7 7 7 7 7 7 7 7 7 7 7 8 8 9 9 9 9 10 9 9 10 10 10 11 12 12 12 13 13 13 12 12 11
8 8 8 8 7 7 7 7 7 7 7 7 7 7 7 7 7 6 6 6 7 7 8 8 9 9 9 9 9 9 9 9 10 10 11 11 12 12 13 13 13 12 12
8 8 8 8 8 8 8 8 8 7 7 7 7 7 7 7 6 6 6 6 6 7 7 8 8 9 9 9 9 9 9 9 9 10 10 11 11 12 12 12 13 13 13
8 8 8 8 8 8 8 8 8 8 7 7 7 7 7 7 6 6 6 6 6 7 7 8 8 8 9 9 9 9 9 9 9 9 10 10 11 11 12 12 12 12 13
8 8 8 8 8 8 8 8 8 8 7 7 7 7 7 6 6 6 6 6 6 7 7 7 8 8 9 9 9 9 9 9 9 9 10 10 11 11 11 11 12 12 11
7 7 7 8 8 8 8 8 8 8 7 7 6 6 6 6 6 6 6 6 7 7 7 7 7 8 8 8 9 9 9 9 9 9 10 10 10 11 11 11 11 11 11
7 7 7 8 8 8 8 8 8 8 7 7 6 6 6 6 6 6 6 6 6 7 7 7 7 8 8 8 8 9 9 9 9 9 10 10 10 10 10 11 11 11 11
7 7 7 8 8 8 8 8 8 8 8 7 7 6 6 6 6 6 6 6 6 7 7 7 7 8 8 8 8 9 9 9 9 9 10 10 10 10 10 10 10 11 11
7 7 8 8 8 8 8 8 8 8 8 7 7 7 6 6 6 6 6 6 7 7 7 7 7 8 8 8 9 9 9 9 9 9 10 10 10 10 10 10 10 10 10
8 8 8 8 8 8 9 9 8 8 8 7 7 7 7 6 6 6 6 7 7 7 7 7 8 8 8 9 9 9 9 9 10 10 10 10 10 10 10 10 10 10 10
8 8 8 8 8 9 9 9 9 8 8 8 7 7 7 7 7 7 7 7 7 7 8 8 8 8 9 9 9 9 9 10 10 10 10 10 10 10 9 10 10 10 10
8 8 8 8 8 9 9 9 9 8 8 8 8 7 7 7 7 7 7 7 7 8 8 8 8 9 9 9 9 9 9 9 9 9 10 10 10 10 9 9 9 9 9
8 8 8 8 9 9 9 9 9 8 8 8 8 8 8 7 7 8 8 8 8 8 8 8 9 9 9 9 9 9 9 9 9 9 9 9 9 9 9 9 9 9 9
8 8 8 8 8 9 9 9 9 9 9 8 8 8 8 8 8 8 8 8 8 8 8 8 8 9 9 9 9 9 9 9 9 9 9 9 9 9 9 9 9 9 9
8 8 8 8 8 9 9 9 9 9 9 9 8 8 8 8 8 8 8 8 8 8 8 8 8 8 8 8 9 9 9 9 9 9 9 9 9 9 9 9 9 9 9
7 8 8 8 8 9 9 9 9 9 9 9 9 8 8 8 8 8 8 8 8 8 8 8 8 8 8 8 8 8 8 8 9 9 9 9 9 9 9 9 9 9 9
7 8 8 8 8 8 9 9 9 9 9 9 9 9 9 8 8 8 8 8 8 8 7 7 7 7 7 8 8 8 8 8 8 8 8 8 9 9 9 9 9 9 9
7 7 8 8 8 8 9 9 9 9 9 9 9 9 9 9 9 8 8 8 8 7 7 7 7 7 7 7 7 7 8 8 8 8 8 8 8 8 9 9 9 9 9
Wind_Speed
7 7 7 8 8 9 8 9 8 9 9 10 10 10 10 10 10 9 9 9 9 8 7 7 7 6 5 6 7 6 5 3 4 2 4 9 9 10 8 9 10 8 7
8 7 8 8 8 9 10 9 9 9 10 10 10 11 12 12 11 11 11 11 10 10 9 9 8 7 7 6 6 7 6 4 3 3 5 6 9 10 9 8 7 9 8
10 9 9 10 10 10 10 10 10 10 10 11 11 11 11 12 12 12 11 11 11 10 10 10 9 8 8 6 6 6 6 6 4 3 5 6 6 9 10 9 10 8 8
11 11 10 11 11 10 11 11 11 11 11 11 11 11 11 12 12 12 13 12 11 11 10 10 9 9 9 8 7 7 7 7 6 5 5 8 8 9 9 9 8 7 6
12 12 11 11 11 11 11 11 12 12 14 12 12 12 11 12 13 13 12 14 11 12 11 11 11 11 12 10 7 6 7 7 7 6 6 7 8 10 10 8 9 8 7
11 12 12 12 12 12 12 12 12 12 12 12 13 13 14 15 15 12 9 9 9 10 11 11 11 11 12 13 12 10 8 8 8 7 6 8 10 9 9 11 11 10 5
11 12 12 12 13 13 15 14 14 13 13 12 13 13 14 14 16 16 14 10 10 10 10 10 13 14 13 11 12 13 11 9 8 7 7 7 9 10 11 12 12 11 6
12 13 13 13 15 14 14 14 14 12 12 12 13 13 13 14 16 15 14 12 12 11 11 11 11 10 9 9 10 11 10 10 9 7 6 6 6 6 9 10 11 9 9
14 13 14 15 15 15 15 15 13 12 12 12 12 12 12 12 14 14 13 9 9 11 10 11 11 11 11 11 9 10 10 9 10 10 8 6 6 7 7 9 12 13 10
14 15 15 15 15 16 15 14 12 11 12 12 12 11 12 12 12 12 12 8 9 8 8 9 11 11 12 12 9 8 9 9 8 9 8 7 7 7 9 10 13 14 11
14 15 16 15 15 15 13 11 11 11 11 11 12 10 10 10 10 11 12 8 7 6 6 7 7 11 12 13 11 7 7 7 7 8 8 7 7 7 9 9 9 12 12
15 16 16 16 15 14 12 12 11 10 10 10 9 9 7 6 6 8 11 10 6 4 4 4 4 9 12 13 10 7 8 7 6 6 7 8 8 8 9 10 9 8 7
15 16 16 16 14 12 11 11 10 9 8 8 7 7 6 5 3 6 8 8 7 4 1 0 2 6 8 9 10 9 8 6 6 7 7 8 8 9 9 9 7 6 6
15 16 15 14 14 11 9 9 8 8 7 8 8 7 6 4 3 1 3 5 7 5 4 4 6 7 7 7 8 7 7 6 6 6 6 6 7 8 9 8 8 8 7
15 15 15 14 12 11 9 8 8 5 4 5 7 7 6 5 4 5 3 1 2 3 4 5 5 5 6 7 7 7 8 7 7 6 5 6 8 8 8 9 9 8 7
13 14 12 12 11 10 9 8 4 4 3 3 4 5 5 3 5 4 3 2 2 1 2 4 5 6 7 8 8 8 8 8 7 7 6 7 8 9 9 9 10 10 10
13 13 12 12 11 10 9 8 7 3 5 5 5 5 5 5 4 3 1 1 0 1 4 5 6 6 7 7 7 7 7 7 7 7 7 7 8 9 10 11 11 11 10
14 13 12 11 11 9 8 7 6 6 5 2 4 6 6 5 3 2 1 1 4 5 6 6 6 6 6 6 7 7 6 6 7 7 7 7 9 10 11 12 12 12 11
13 11 11 11 11 9 8 7 6 6 5 4 1 3 5 5 5 4 3 4 5 5 6 6 6 6 6 6 6 6 6 5 6 7 7 8 9 10 11 12 12 15 13
11 13 13 11 10 9 8 7 6 5 5 5 3 2 0 3 3 4 5 6 6 5 5 5 5 5 5 5 5 5 5 5 6 6 7 8 9 10 11 13 13 14 13
11 12 14 11 9 8 8 7 5 5 5 4 4 3 4 4 4 4 3 4 5 5 4 4 4 4 4 4 5 6 7 6 6 6 7 8 9 10 10 11 13 13 12
10 10 10 10 9 8 8 7 5 4 5 5 4 2 3 4 4 3 3 4 4 4 3 3 3 3 3 3 4 5 6 6 7 7 8 8 9 10 11 12 12 12 12
9 10 10 10 9 9 7 6 5 5 4 4 3 4 4 4 4 3 4 3 3 2 2 1 2 1 1 1 2 3 5 6 6 8 9 9 9 10 11 13 15 15 14
9 9 10 10 9 8 7 6 6 6 5 4 4 4 3 3 3 3 3 3 2 2 2 2 1 1 1 0 1 2 2 3 5 7 10 10 10 11 11 13 14 15 15
8 9 9 8 9 8 7 6 5 6 5 3 3 4 3 3 3 2 2 1 1 1 2 2 1 1 1 1 1 3 4 5 5 7 9 9 11 12 13 13 13 14 13
8 8 8 8 8 8 8 7 6 5 5 4 4 3 3 3 3 3 1 1 1 1 1 1 2 2 3 3 6 8 8 8 8 7 7 8 10 11 13 11 14 13 14
Wind_Direction
322 319 314 310 311 306 298 297 299 301 301 296 293 289 285 280 273 257 245 247 243 238 236 232 232 236 254 274 277 270 265 271 258 221 156 141 133 130 129 124 133 116 97
323 320 314 312 306 302 302 303 301 298 296 296 292 288 284 280 274 265 252 246 240 237 234 231 229 228 227 242 260 267 265 257 256 227 148 145 142 136 138 134 124 107 98
322 318 315 312 308 306 304 302 300 297 294 293 290 288 284 282 279 275 265 251 242 237 234 230 227 222 223 225 234 245 251 249 244 228 176 157 148 142 133 120 111 109 104
321 317 312 309 307 305 303 300 298 296 294 289 287 284 282 280 277 275 272 261 248 239 234 232 229 223 220 219 226 231 233 236 234 227 198 165 157 152 141 135 130 126 121
319 314 310 308 306 303 300 299 297 295 293 293 291 287 283 279 272 264 263 263 253 242 236 231 232 224 221 215 215 213 217 220 222 216 206 179 163 162 160 152 141 129 116
314 311 309 307 305 303 301 298 295 295 294 292 289 287 282 278 281 286 283 278 272 258 244 234 235 232 225 211 205 198 202 213 213 211 205 190 179 173 164 155 147 145 140
314 311 311 310 308 305 305 304 300 297 294 290 286 283 278 273 272 269 265 263 263 260 250 239 237 234 214 208 204 201 204 212 210 209 207 201 183 174 166 162 162 159 143
317 316 315 313 309 306 304 300 297 295 293 289 285 282 277 273 267 258 252 254 256 251 243 233 226 243 236 213 204 205 207 207 205 204 208 205 181 165 168 164 156 134 121
319 319 317 313 309 306 303 301 299 297 294 290 286 282 278 273 264 251 239 252 250 248 242 232 221 224 229 217 208 206 207 204 205 200 191 187 180 164 167 156 150 147 146
323 319 314 309 306 303 299 299 299 297 294 293 289 286 282 276 259 238 227 244 246 244 239 240 232 224 215 206 208 209 208 202 190 189 187 185 187 179 180 173 163 160 152
323 317 312 309 306 300 298 301 301 299 298 295 292 287 282 275 259 235 223 233 241 239 235 233 227 206 200 201 207 210 214 199 187 184 186 188 188 186 182 178 176 169 163
321 317 314 312 309 308 307 305 303 300 300 301 300 297 293 281 258 232 215 221 240 248 238 241 233 202 196 197 203 196 183 183 184 185 188 189 192 191 184 178 181 175 164
321 319 316 312 308 305 305 307 307 306 307 310 313 313 313 306 254 211 210 213 218 236 271 259 195 191 189 199 207 186 176 193 199 194 198 197 193 187 174 167 165 150 129
321 319 316 313 311 312 311 308 309 313 320 325 325 327 326 326 342 278 207 200 201 210 209 189 181 188 205 212 191 194 207 214 209 205 195 193 182 179 173 163 160 149 133
321 318 317 316 313 314 312 309 308 324 330 313 322 329 332 335 0 359 345 292 210 195 188 185 188 187 200 209 203 197 204 208 215 211 196 189 178 180 172 161 161 154 147
320 319 318 317 317 317 317 318 310 283 249 255 275 298 314 338 345 1 34 32 14 53 200 207 210 212 212 212 209 205 204 207 206 200 195 186 180 177 171 164 165 162 156
318 315 315 315 317 318 322 321 321 286 231 252 268 280 286 314 328 344 9 11 288 170 217 224 224 224 225 225 219 215 208 207 203 196 193 186 179 174 171 169 169 165 162
318 315 316 317 318 318 320 320 326 334 329 290 226 245 264 273 277 278 279 260 222 213 230 231 227 230 235 229 222 221 215 203 200 198 192 180 176 173 174 173 173 168 164
318 317 320 318 315 317 320 325 335 338 334 329 300 205 228 235 234 237 222 245 250 233 229 231 232 230 231 225 217 217 213 203 196 192 188 178 176 174 175 172 170 166 165
317 314 315 314 315 319 321 330 338 340 341 340 339 347 257 240 246 211 216 239 254 257 251 244 243 237 227 219 213 211 203 199 194 194 187 180 176 176 175 170 169 171 174
318 317 317 317 325 325 327 336 341 340 340 341 350 7 339 309 302 286 248 242 254 259 255 253 245 238 227 214 210 207 205 198 192 192 187 179 176 174 172 169 168 171 172
315 317 322 325 326 328 331 330 330 331 334 340 336 327 299 296 305 305 299 284 273 260 258 252 246 236 235 227 215 209 209 200 192 188 183 178 171 171 170 168 167 170 170
317 321 325 328 328 329 328 329 334 339 345 351 346 341 333 331 333 326 316 314 306 302 309 307 274 256 248 233 219 219 218 205 192 180 176 174 170 170 169 167 167 168 170
317 323 329 332 332 336 339 337 341 344 351 356 356 347 342 340 333 334 338 346 345 346 352 354 340 343 10 243 240 229 210 183 174 173 172 169 166 165 165 167 167 170 171
324 331 332 332 334 336 335 336 342 340 340 352 359 345 350 355 349 347 346 356 2 38 36 17 6 12 51 95 93 91 89 102 128 151 159 162 161 161 161 161 162 164 166
333 337 337 335 336 334 332 335 341 341 341 358 9 353 350 355 350 3 6 44 86 82 62 39 49 60 62 65 80 85 85 87 93 110 139 150 152 153 154 154 156 160 161
Height
1481 1478 1475 1471 1468 1465 1463 1460 1458 1455 1453 1451 1449 1448 1448 1448 1448 1449 1449 1449 1449 1449 1450 1450 1450 1451 1452 1454 1456 1459 1462 1465 1467 1470 1472 1474 1477 1479 1482 1484 1486 1488 1490
1477 1474 1470 1467 1464 1461 1458 1455 1452 1449 1447 1445 1443 1442 1441 1440 1441 1441 1442 1442 1443 1444 1444 1445 1445 1446 1447 1448 1450 1453 1456 1460 1463 1466 1468 1470 1474 1476 1479 1481 1483 1485 1487
1473 1470 1466 1462 1459 1456 1453 1449 1446 1443 1441 1438 1437 1435 1434 1433 1433 1433 1434 1435 1436 1437 1438 1439 1440 1440 1441 1443 1444 1446 1450 1454 1457 1461 1464 1467 1470 1474 1476 1479 1481 1483 1485
1469 1466 1462 1458 1454 1451 1447 1444 1441 1438 1435 1432 1430 1428 1427 1426 1425 1425 1425 1426 1428 1429 1431 1432 1434 1435 1436 1437 1438 1440 1443 1447 1451 1455 1459 1463 1466 1470 1473 1475 1478 1481 1483
1465 1461 1457 1454 1450 1446 1442 1438 1435 1431 1429 1426 1423 1421 1419 1418 1417 1417 1417 1418 1419 1421 1423 1425 1427 1429 1430 1431 1432 1434 1437 1440 1444 1448 1453 1457 1461 1465 1468 1472 1475 1478 1482
1461 1457 1453 1449 1444 1440 1437 1433 1429 1425 1422 1419 1416 1413 1411 1410 1410 1409 1409 1409 1410 1412 1414 1417 1420 1422 1424 1425 1426 1428 1431 1433 1437 1440 1446 1450 1454 1459 1463 1467 1470 1474 1479
1457 1452 1448 1444 1439 1435 1431 1427 1423 1419 1415 1412 1408 1405 1403 1401 1400 1400 1400 1401 1402 1403 1406 1409 1413 1416 1418 1419 1420 1422 1424 1426 1430 1434 1438 1443 1448 1453 1457 1461 1466 1471 1475
1452 1448 1443 1439 1434 1429 1425 1420 1416 1413 1409 1405 1401 1398 1395 1392 1391 1391 1391 1392 1393 1395 1398 1402 1405 1409 1412 1413 1415 1416 1418 1420 1424 1428 1433 1438 1442 1447 1453 1457 1462 1468 1473
1448 1443 1438 1433 1428 1423 1419 1415 1410 1406 1402 1398 1394 1390 1387 1384 1383 1382 1383 1384 1385 1387 1391 1395 1398 1402 1405 1408 1410 1412 1413 1415 1418 1422 1427 1431 1436 1442 1447 1453 1458 1463 1468
1443 1438 1433 1428 1423 1418 1413 1409 1405 1401 1396 1392 1388 1384 1380 1377 1375 1375 1376 1377 1378 1380 1384 1388 1392 1396 1399 1402 1405 1407 1409 1411 1414 1417 1421 1426 1431 1436 1441 1447 1451 1457 1462
1438 1433 1428 1423 1418 1413 1409 1405 1400 1395 1391 1387 1382 1378 1374 1371 1369 1369 1369 1371 1373 1376 1379 1383 1386 1390 1394 1397 1401 1404 1406 1408 1411 1413 1416 1421 1426 1431 1436 1441 1448 1452 1457
1434 1428 1423 1418 1414 1409 1405 1400 1396 1391 1387 1382 1377 1373 1370 1366 1364 1364 1364 1367 1369 1372 1376 1379 1382 1386 1389 1393 1397 1400 1403 1405 1407 1410 1413 1416 1421 1426 1431 1437 1443 1449 1454
1429 1424 1419 1414 1409 1405 1401 1397 1392 1388 1383 1379 1374 1370 1366 1363 1361 1361 1362 1364 1367 1370 1373 1376 1379 1382 1386 1390 1393 1396 1399 1402 1404 1407 1409 1412 1416 1421 1427 1433 1439 1445 1450
1426 1420 1415 1410 1406 1402 1398 1394 1390 1385 1381 1376 1372 1368 1365 1362 1361 1360 1361 1363 1365 1368 1371 1374 1377 1380 1383 1387 1390 1393 1395 1398 1401 1404 1406 1409 1413 1417 1422 1428 1433 1439 1445
1422 1417 1412 1408 1404 1399 1395 1391 1387 1383 1379 1375 1370 1367 1364 1362 1360 1360 1361 1363 1365 1367 1370 1373 1375 1378 1381 1384 1386 1389 1392 1395 1398 1400 1403 1406 1409 1414 1418 1424 1429 1434 1439
1419 1414 1410 1406 1402 1398 1393 1389 1385 1381 1377 1373 1369 1366 1363 1361 1360 1360 1361 1362 1364 1366 1369 1371 1373 1376 1378 1381 1383 1386 1388 1391 1394 1396 1399 1402 1405 1409 1414 1420 1425 1430 1435
1417 1413 1408 1404 1400 1396 1391 1387 1383 1379 1375 1372 1369 1366 1363 1361 1360 1360 1361 1362 1363 1365 1367 1369 1371 1373 1375 1378 1380 1382 1384 1387 1390 1392 1395 1398 1402 1406 1410 1415 1420 1426 1432
1415 1411 1407 1402 1398 1394 1390 1386 1382 1378 1375 1371 1368 1366 1363 1362 1361 1360 1361 1362 1363 1364 1365 1367 1368 1370 1372 1374 1376 1378 1381 1383 1386 1388 1391 1394 1398 1402 1406 1411 1416 1421 1427
1413 1409 1405 1401 1397 1393 1389 1385 1381 1378 1374 1371 1368 1366 1364 1362 1361 1360 1360 1361 1362 1363 1364 1365 1366 1367 1369 1370 1372 1375 1377 1379 1381 1384 1387 1390 1394 1397 1401 1406 1412 1417 1423
1411 1407 1403 1399 1396 1392 1388 1385 1381 1377 1374 1371 1369 1366 1364 1363 1362 1361 1360 1360 1360 1361 1362 1362 1363 1364 1365 1367 1369 1371 1373 1375 1377 1379 1382 1386 1389 1393 1397 1402 1407 1413 1419
1409 1405 1401 1398 1395 1391 1388 1385 1381 1378 1375 1372 1370 1367 1365 1363 1362 1361 1360 1359 1359 1359 1359 1360 1360 1361 1362 1363 1365 1367 1369 1371 1373 1375 1378 1382 1385 1389 1394 1399 1404 1410 1416
1407 1404 1400 1397 1394 1391 1388 1384 1381 1378 1375 1373 1370 1368 1365 1363 1361 1360 1359 1358 1357 1357 1357 1357 1358 1358 1359 1360 1361 1362 1364 1366 1368 1371 1374 1377 1381 1385 1390 1395 1401 1406 1412
1406 1403 1400 1396 1393 1390 1387 1384 1382 1379 1376 1374 1371 1368 1366 1364 1361 1359 1358 1356 1355 1355 1355 1355 1355 1355 1355 1356 1357 1358 1359 1361 1363 1366 1369 1372 1376 1381 1386 1391 1397 1403 1410
1405 1402 1399 1395 1393 1390 1387 1385 1382 1380 1377 1375 1372 1370 1367 1364 1362 1359 1357 1356 1355 1354 1353 1352 1352 1352 1352 1352 1352 1353 1354 1356 1359 1361 1365 1369 1374 1378 1383 1389 1395 1401 1408
1404 1401 1398 1395 1392 1390 1388 1385 1383 1381 1378 1376 1374 1371 1368 1366 1363 1360 1358 1356 1354 1353 1352 1351 1350 1350 1349 1349 1349 1350 1351 1353 1356 1359 1363 1367 1372 1377 1382 1388 1393 1400 1406
1403 1400 1397 1395 1392 1390 1388 1386 1384 1382 1380 1378 1375 1372 1370 1367 1364 1361 1359 1357 1355 1354 1353 1352 1350 1350 1349 1348 1348 1349 1351 1353 1355 1359 1362 1366 1371 1376 1381 1387 1393 1400 1406